CW7563 Weather Reports


Display with metric or nautical units.
time (UTC)temp
F
wind
direction
speed
MPH
gust
MPH
rain 1hr
in
rain 24hr
in
rain mn
in
humidity
%
barometer
mb
20200711005805 81 232 2.0 6.0 0.00 0.00 0.00 41 1019.6
20200711005305 80 242 1.0 6.0 0.00 0.00 0.00 43 1019.6
20200711004805 79 159 2.0 6.0 0.00 0.00 0.00 41 1019.6
20200711004305 80 252 2.0 6.0 0.00 0.00 0.00 43 1019.7
20200711003805 79 226 3.0 9.0 0.00 0.00 0.00 45 1019.8
20200711003305 79 26 2.0 5.0 0.00 0.00 0.00 43 1019.8
20200711002805 80 232 3.0 5.0 0.00 0.00 0.00 43 1019.8
20200711002305 79 275 4.0 12.0 0.00 0.00 0.00 43 1019.9
20200711001805 80 247 1.0 3.0 0.00 0.00 0.00 44 1019.9
20200711001305 79 19 3.0 5.0 0.00 0.00 0.00 43 1020.0
20200711000805 79 303 4.0 9.0 0.00 0.00 0.00 44 1020.0
20200711000305 78 302 3.0 8.0 0.00 0.00 0.00 44 1020.0
20200710235805 79 0 5.0 8.0 0.00 0.00 0.00 44 1020.0
20200710235305 79 340 5.0 8.0 0.00 0.00 0.00 43 1020.1
20200710234805 79 284 3.0 7.0 0.00 0.00 0.00 45 1020.1
20200710234305 78 23 3.0 7.0 0.00 0.00 0.00 45 1020.2
20200710233805 78 287 2.0 9.0 0.00 0.00 0.00 46 1020.2
20200710233305 79 300 5.0 9.0 0.00 0.00 0.00 44 1020.2
20200710232806 79 292 3.0 9.0 0.00 0.00 0.00 45 1020.2
20200710232305 79 321 3.0 6.0 0.00 0.00 0.00 44 1020.3
20200710231805 78 313 4.0 9.0 0.00 0.00 0.00 45 1020.3
20200710231305 79 320 3.0 8.0 0.00 0.00 0.00 45 1020.4
20200710230805 79 272 3.0 10.0 0.00 0.00 0.00 45 1020.4
20200710230305 78 257 5.0 8.0 0.00 0.00 0.00 46 1020.5
20200710225805 78 285 2.0 5.0 0.00 0.00 0.00 45 1020.5
20200710225305 78 298 4.0 8.0 0.00 0.00 0.00 45 1020.7
20200710224805 80 235 3.0 7.0 0.00 0.00 0.00 44 1020.7
20200710224305 78 255 4.0 8.0 0.00 0.00 0.00 46 1020.7
20200710223805 78 297 5.0 8.0 0.00 0.00 0.00 47 1020.7
20200710223304 77 207 4.0 9.0 0.00 0.00 0.00 47 1020.8
20200710222805 79 195 4.0 7.0 0.00 0.00 0.00 46 1020.8
20200710222305 77 264 3.0 12.0 0.00 0.00 0.00 47 1020.8
20200710221805 77 285 5.0 7.0 0.00 0.00 0.00 48 1020.9
20200710221305 78 316 3.0 8.0 0.00 0.00 0.00 48 1020.8
20200710220805 77 317 3.0 6.0 0.00 0.00 0.00 50 1020.9
20200710220305 76 224 3.0 5.0 0.00 0.00 0.00 50 1021.0
20200710215805 77 278 5.0 7.0 0.00 0.00 0.00 48 1021.1
20200710215305 77 356 2.0 7.0 0.00 0.00 0.00 51 1021.1
20200710214805 77 243 4.0 8.0 0.00 0.00 0.00 50 1021.1
20200710214305 76 183 2.0 9.0 0.00 0.00 0.00 52 1021.2
20200710213805 76 296 3.0 9.0 0.00 0.00 0.00 51 1021.1
20200710213305 75 89 2.0 5.0 0.00 0.00 0.00 51 1021.2
20200710212805 76 350 6.0 9.0 0.00 0.00 0.00 50 1021.1
20200710212305 76 186 4.0 8.0 0.00 0.00 0.00 51 1021.1
20200710211805 76 271 2.0 8.0 0.00 0.00 0.00 52 1021.1
20200710211305 76 194 2.0 5.0 0.00 0.00 0.00 52 1021.2
20200710210804 76 196 1.0 3.0 0.00 0.00 0.00 51 1021.3
20200710210304 76 359 2.0 3.0 0.00 0.00 0.00 53 1021.3
20200710205805 75 358 2.0 5.0 0.00 0.00 0.00 54 1021.4
20200710205304 75 320 2.0 5.0 0.00 0.00 0.00 52 1021.5
20200710204804 74 1 3.0 7.0 0.00 0.00 0.00 54 1021.5
20200710204305 75 299 5.0 8.0 0.00 0.00 0.00 53 1021.6
20200710203804 74 278 2.0 6.0 0.00 0.00 0.00 55 1021.5
20200710203305 74 211 2.0 6.0 0.00 0.00 0.00 54 1021.6
20200710202805 74 249 3.0 7.0 0.00 0.00 0.00 54 1021.6
20200710202305 74 252 3.0 7.0 0.00 0.00 0.00 54 1021.6
20200710201805 75 284 2.0 7.0 0.00 0.00 0.00 55 1021.6
20200710201305 73 260 2.0 3.0 0.00 0.00 0.00 56 1021.6
20200710200805 74 83 1.0 9.0 0.00 0.00 0.00 56 1021.7
20200710200304 75 3 2.0 6.0 0.00 0.00 0.00 56 1021.8
20200710195806 72 1 3.0 8.0 0.00 0.00 0.00 57 1021.7
20200710195305 72 292 4.0 9.0 0.00 0.00 0.00 58 1021.8
20200710194805 72 285 3.0 8.0 0.00 0.00 0.00 58 1021.7
20200710194305 74 205 2.0 6.0 0.00 0.00 0.00 55 1021.7
20200710193805 72 240 3.0 7.0 0.00 0.00 0.00 59 1021.7
20200710193304 72 253 5.0 8.0 0.00 0.00 0.00 58 1021.7
20200710192805 72 330 1.0 6.0 0.00 0.00 0.00 59 1021.9
20200710192305 71 26 3.0 5.0 0.00 0.00 0.00 62 1021.9
20200710191805 70 70 3.0 7.0 0.00 0.00 0.00 60 1021.9
20200710191304 71 315 4.0 8.0 0.00 0.00 0.00 60 1022.0
20200710190805 71 322 2.0 8.0 0.00 0.00 0.00 61 1022.0
20200710190304 70 34 2.0 6.0 0.00 0.00 0.00 62 1022.0
20200710185805 70 288 3.0 9.0 0.00 0.00 0.00 61 1022.0
20200710185304 71 265 3.0 8.0 0.00 0.00 0.00 60 1022.0
20200710184804 70 216 1.0 5.0 0.00 0.00 0.00 61 1022.0
20200710184305 68 172 2.0 6.0 0.00 0.00 0.00 64 1022.0
20200710183805 69 309 3.0 8.0 0.00 0.00 0.00 62 1022.0
20200710183304 69 311 4.0 9.0 0.00 0.00 0.00 64 1022.0
20200710182804 68 179 3.0 7.0 0.00 0.00 0.00 64 1022.0
20200710182304 68 300 2.0 8.0 0.00 0.00 0.00 63 1022.0
20200710181805 69 2 1.0 3.0 0.00 0.00 0.00 63 1022.1
20200710181305 67 324 2.0 6.0 0.00 0.00 0.00 64 1022.1
20200710180805 67 329 2.0 5.0 0.00 0.00 0.00 65 1022.1
20200710180304 68 26 2.0 8.0 0.00 0.00 0.00 63 1022.2
20200710175805 67 321 2.0 9.0 0.00 0.00 0.00 65 1022.2
20200710175304 67 289 2.0 7.0 0.00 0.00 0.00 63 1022.2
20200710174805 68 47 2.0 3.0 0.00 0.00 0.00 63 1022.2
20200710174304 67 36 1.0 2.0 0.00 0.00 0.00 65 1022.2
20200710173805 66 293 1.0 3.0 0.00 0.00 0.00 66 1022.3
20200710173305 66 298 4.0 8.0 0.00 0.00 0.00 66 1022.3
20200710172804 66 207 1.0 8.0 0.00 0.00 0.00 67 1022.2
20200710172305 65 33 2.0 7.0 0.00 0.00 0.00 68 1022.2
20200710171804 65 310 3.0 9.0 0.00 0.00 0.00 69 1022.2
20200710171304 66 0 4.0 9.0 0.00 0.00 0.00 66 1022.2
20200710170805 65 20 2.0 3.0 0.00 0.00 0.00 69 1022.3
20200710170304 64 326 2.0 6.0 0.00 0.00 0.00 71 1022.3
20200710165805 64 345 5.0 8.0 0.00 0.00 0.00 69 1022.3
20200710165305 64 5 3.0 5.0 0.00 0.00 0.00 70 1022.2
20200710164805 63 263 2.0 7.0 0.00 0.00 0.00 71 1022.3
20200710164304 63 300 3.0 7.0 0.00 0.00 0.00 70 1022.3
20200710163805 63 266 3.0 5.0 0.00 0.00 0.00 70 1022.3
20200710163304 64 10 2.0 6.0 0.00 0.00 0.00 71 1022.3
20200710162804 63 51 2.0 3.0 0.00 0.00 0.00 71 1022.3
20200710162305 63 87 3.0 7.0 0.00 0.00 0.00 71 1022.3
20200710161805 63 26 1.0 3.0 0.00 0.00 0.00 72 1022.3
20200710161304 62 74 1.0 3.0 0.00 0.00 0.00 72 1022.3
20200710160804 63 54 3.0 5.0 0.00 0.00 0.00 71 1022.3
20200710160304 63 339 2.0 3.0 0.00 0.00 0.00 71 1022.3
20200710155805 62 64 2.0 3.0 0.00 0.00 0.00 72 1022.2
20200710155304 62 63 1.0 6.0 0.00 0.00 0.00 72 1022.2
20200710154804 62 62 1.0 3.0 0.00 0.00 0.00 73 1022.3
20200710154304 62 66 2.0 3.0 0.00 0.00 0.00 72 1022.2
20200710153804 62 43 1.0 6.0 0.00 0.00 0.00 74 1022.2
20200710153304 61 70 2.0 7.0 0.00 0.00 0.00 74 1022.2
20200710152804 62 29 3.0 6.0 0.00 0.00 0.00 74 1022.1
20200710152304 61 355 2.0 3.0 0.00 0.00 0.00 75 1022.2
20200710151804 61 49 1.0 3.0 0.00 0.00 0.00 75 1022.1
20200710151304 60 347 1.0 3.0 0.00 0.00 0.00 76 1022.1
20200710150805 60 342 1.0 5.0 0.00 0.00 0.00 77 1022.2
20200710150304 60 68 2.0 6.0 0.00 0.00 0.00 77 1022.1
20200710145805 60 28 2.0 3.0 0.00 0.00 0.00 77 1022.1
20200710145304 59 43 1.0 5.0 0.00 0.00 0.00 78 1022.1
20200710144804 59 37 2.0 3.0 0.00 0.00 0.00 78 1022.0
20200710144304 59 66 1.0 3.0 0.00 0.00 0.00 80 1022.0
20200710143805 59 27 1.0 3.0 0.00 0.00 0.00 80 1022.0
20200710143304 59 35 2.0 3.0 0.00 0.00 0.00 80 1021.9
20200710142804 59 48 2.0 3.0 0.00 0.00 0.00 80 1021.9
20200710142305 59 81 1.0 3.0 0.00 0.00 0.00 80 1021.8
20200710141804 58 74 1.0 3.0 0.00 0.00 0.00 80 1021.7
20200710141305 58 44 1.0 3.0 0.00 0.00 0.00 81 1021.6
20200710140804 58 28 2.0 3.0 0.00 0.00 0.00 81 1021.6
20200710140307 58 5 2.0 3.0 0.00 0.00 0.00 81 1021.6
20200710135806 58 217 0.0 1.0 0.00 0.00 0.00 82 1021.5
20200710135306 58 218 0.0 2.0 0.00 0.00 0.00 82 1021.4
20200710134807 58 218 1.0 1.0 0.00 0.00 0.00 82 1021.4
20200710134307 57 218 0.0 1.0 0.00 0.00 0.00 82 1021.5
20200710133806 57 298 0.0 2.0 0.00 0.00 0.00 82 1021.4
20200710133306 57 297 0.0 0.0 0.00 0.00 0.00 82 1021.4
20200710132806 57 297 1.0 2.0 0.00 0.00 0.00 81 1021.5
20200710132307 58 297 1.0 2.0 0.00 0.00 0.00 81 1021.3
20200710131807 57 297 1.0 1.0 0.00 0.00 0.00 81 1021.2
20200710131306 57 297 1.0 2.0 0.00 0.00 0.00 82 1021.1
20200710130806 57 297 0.0 1.0 0.00 0.00 0.00 82 1021.1
20200710130307 57 297 0.0 1.0 0.00 0.00 0.00 82 1021.1
20200710125806 57 296 0.0 1.0 0.00 0.00 0.00 81 1021.1
20200710125307 57 296 1.0 2.0 0.00 0.00 0.00 82 1021.1
20200710124806 56 296 1.0 2.0 0.00 0.00 0.00 83 1021.0
20200710124306 57 297 0.0 2.0 0.00 0.00 0.00 83 1021.0
20200710123806 57 298 1.0 2.0 0.00 0.00 0.00 83 1020.9
20200710123307 57 298 1.0 3.0 0.00 0.00 0.00 83 1020.9
20200710122806 57 298 1.0 3.0 0.00 0.00 0.00 83 1020.8
20200710122307 57 271 1.0 2.0 0.00 0.00 0.00 83 1020.9
20200710121806 57 267 1.0 2.0 0.00 0.00 0.00 83 1020.8
20200710121306 57 267 1.0 3.0 0.00 0.00 0.00 82 1020.7
20200710120806 57 264 1.0 2.0 0.00 0.00 0.00 82 1020.7
20200710120306 57 265 1.0 3.0 0.00 0.00 0.00 82 1020.7
20200710115806 57 263 2.0 3.0 0.00 0.00 0.00 82 1020.6
20200710115307 57 283 1.0 3.0 0.00 0.00 0.00 82 1020.5
20200710114806 57 317 2.0 3.0 0.00 0.00 0.00 82 1020.5
20200710114307 57 277 1.0 2.0 0.00 0.00 0.00 82 1020.5
20200710113807 57 277 0.0 2.0 0.00 0.00 0.00 81 1020.5
20200710113306 57 277 2.0 3.0 0.00 0.00 0.00 81 1020.5
20200710112807 57 301 1.0 3.0 0.00 0.00 0.00 81 1020.5
20200710112307 58 316 2.0 3.0 0.00 0.00 0.00 81 1020.4
20200710111806 58 286 2.0 3.0 0.00 0.00 0.00 81 1020.4
20200710111306 58 273 2.0 3.0 0.00 0.00 0.00 82 1020.3
20200710110806 58 261 2.0 3.0 0.00 0.00 0.00 81 1020.3
20200710110306 58 301 1.0 2.0 0.00 0.00 0.00 81 1020.2
20200710105806 58 326 1.0 3.0 0.00 0.00 0.00 81 1020.2
20200710105306 58 289 1.0 3.0 0.00 0.00 0.00 81 1020.2
20200710104806 58 298 1.0 3.0 0.00 0.00 0.00 81 1020.1
20200710104307 58 288 1.0 3.0 0.00 0.00 0.00 81 1020.1
20200710103806 58 290 1.0 3.0 0.00 0.00 0.00 81 1020.2
20200710103307 58 286 1.0 2.0 0.00 0.00 0.00 81 1020.1
20200710102807 58 273 1.0 2.0 0.00 0.00 0.00 81 1020.1
20200710102307 59 245 2.0 3.0 0.00 0.00 0.00 81 1020.2
20200710101807 59 240 1.0 2.0 0.00 0.00 0.00 81 1020.0
20200710101306 59 234 0.0 2.0 0.00 0.00 0.00 81 1019.9
20200710100806 59 239 1.0 3.0 0.00 0.00 0.00 81 1019.9
20200710100306 59 272 1.0 3.0 0.00 0.00 0.00 81 1019.8
20200710095806 59 250 2.0 3.0 0.00 0.00 0.00 81 1019.8
20200710095307 59 288 1.0 3.0 0.00 0.00 0.00 81 1019.7
20200710094806 59 221 1.0 3.0 0.00 0.00 0.00 81 1019.7
20200710094307 59 270 1.0 7.0 0.00 0.00 0.00 81 1019.7
20200710093806 60 270 2.0 3.0 0.00 0.00 0.00 81 1019.6
20200710093306 60 274 1.0 3.0 0.00 0.00 0.00 81 1019.7
20200710092807 60 236 2.0 5.0 0.00 0.00 0.00 81 1019.7
20200710092307 60 210 1.0 3.0 0.00 0.00 0.00 81 1019.6
20200710091806 60 293 2.0 3.0 0.00 0.00 0.00 81 1019.6
20200710091306 60 263 2.0 3.0 0.00 0.00 0.00 81 1019.6
20200710090807 60 265 2.0 3.0 0.00 0.00 0.00 81 1019.6
20200710090306 60 273 2.0 3.0 0.00 0.00 0.00 81 1019.5
20200710085806 60 278 1.0 6.0 0.00 0.00 0.00 82 1019.3
20200710085306 60 297 2.0 3.0 0.00 0.00 0.00 81 1019.3
20200710084806 60 280 2.0 3.0 0.00 0.00 0.00 81 1019.3
20200710084306 60 262 1.0 3.0 0.00 0.00 0.00 81 1019.3
20200710083806 60 260 2.0 6.0 0.00 0.00 0.00 81 1019.2
20200710083306 61 301 1.0 3.0 0.00 0.00 0.00 81 1019.2
20200710082807 61 284 1.0 2.0 0.00 0.00 0.00 81 1019.2
20200710082306 61 291 1.0 3.0 0.00 0.00 0.00 81 1019.2
20200710081806 61 298 2.0 5.0 0.00 0.00 0.00 81 1019.1
20200710081307 61 304 2.0 3.0 0.00 0.00 0.00 81 1019.1
20200710080806 61 292 2.0 3.0 0.00 0.00 0.00 81 1019.1
20200710080306 61 261 1.0 3.0 0.00 0.00 0.00 80 1019.1
20200710075806 62 242 1.0 3.0 0.00 0.00 0.00 80 1019.1
20200710075307 62 268 2.0 6.0 0.00 0.00 0.00 80 1019.0
20200710074805 62 313 0.0 2.0 0.00 0.00 0.00 79 1019.1
20200710074306 62 314 2.0 5.0 0.00 0.00 0.00 79 1019.0
20200710073806 62 300 2.0 3.0 0.00 0.00 0.00 79 1019.0
20200710073307 62 243 2.0 5.0 0.00 0.00 0.00 79 1019.0
20200710072806 63 253 1.0 3.0 0.00 0.00 0.00 79 1018.9
20200710072306 63 286 2.0 3.0 0.00 0.00 0.00 80 1019.0
20200710071806 63 346 1.0 3.0 0.00 0.00 0.00 80 1018.9
20200710071306 63 275 2.0 6.0 0.00 0.00 0.00 80 1019.0
20200710070823 63 226 3.0 7.0 0.00 0.00 0.00 80 1019.0
20200710070307 63 253 3.0 5.0 0.00 0.00 0.00 81 1018.9
20200710065807 64 260 2.0 3.0 0.00 0.00 0.00 82 1018.7
20200710065306 64 252 2.0 3.0 0.00 0.00 0.00 81 1018.6
20200710064806 65 306 3.0 5.0 0.00 0.00 0.00 79 1018.6
20200710064306 65 288 2.0 3.0 0.00 0.00 0.00 76 1018.5
20200710063805 65 317 2.0 3.0 0.00 0.00 0.00 75 1018.5
20200710063306 65 42 3.0 6.0 0.00 0.00 0.00 75 1018.4
20200710062806 65 317 2.0 3.0 0.00 0.00 0.00 75 1018.3
20200710062306 66 319 3.0 5.0 0.00 0.00 0.00 75 1018.4
20200710061806 66 326 1.0 3.0 0.00 0.00 0.00 75 1018.2
20200710061305 66 289 2.0 3.0 0.00 0.00 0.00 75 1018.2
20200710060805 66 315 2.0 3.0 0.00 0.00 0.00 75 1018.2
20200710060306 66 327 2.0 3.0 0.00 0.00 0.00 74 1018.0
20200710055806 66 13 1.0 3.0 0.00 0.00 0.00 73 1018.1
20200710055306 66 357 3.0 5.0 0.00 0.00 0.00 73 1018.1
20200710054806 66 336 3.0 8.0 0.00 0.00 0.00 72 1018.1
20200710054305 66 331 2.0 5.0 0.00 0.00 0.00 71 1018.0
20200710053806 66 345 2.0 5.0 0.00 0.00 0.00 71 1018.0
20200710053306 67 6 3.0 7.0 0.00 0.00 0.00 70 1017.9
20200710052806 67 20 4.0 7.0 0.00 0.00 0.00 70 1018.0
20200710052306 67 352 2.0 5.0 0.00 0.00 0.00 70 1018.0
20200710051806 67 347 2.0 6.0 0.00 0.00 0.00 70 1018.0
20200710051306 67 15 2.0 3.0 0.00 0.00 0.00 70 1018.0
20200710050806 67 16 2.0 5.0 0.00 0.00 0.00 70 1017.9
20200710050305 67 20 2.0 6.0 0.00 0.00 0.00 70 1017.9
20200710045805 67 14 3.0 7.0 0.00 0.00 0.00 70 1017.8
20200710045306 68 319 3.0 9.0 0.00 0.00 0.00 70 1017.8
20200710044806 68 339 3.0 5.0 0.00 0.00 0.00 70 1017.7
20200710044306 68 346 4.0 9.0 0.00 0.00 0.00 69 1017.7
20200710043806 68 7 3.0 6.0 0.00 0.00 0.00 69 1017.6
20200710043306 69 28 3.0 5.0 0.00 0.00 0.00 69 1017.5
20200710042806 69 36 5.0 10.0 0.00 0.00 0.00 68 1017.5
20200710042305 69 5 3.0 8.0 0.00 0.00 0.00 68 1017.4
20200710041806 69 342 2.0 6.0 0.00 0.00 0.00 68 1017.3
20200710041306 69 323 3.0 6.0 0.00 0.00 0.00 68 1017.2
20200710040806 69 339 3.0 6.0 0.00 0.00 0.00 68 1017.1
20200710040305 69 28 2.0 6.0 0.00 0.00 0.00 69 1017.0
20200710035805 69 344 4.0 8.0 0.00 0.00 0.00 68 1017.0
20200710035306 70 322 1.0 5.0 0.00 0.00 0.00 68 1016.9
20200710034805 70 17 4.0 8.0 0.00 0.00 0.00 68 1016.9
20200710034306 70 17 3.0 7.0 0.00 0.00 0.00 68 1016.8
20200710033805 70 335 3.0 7.0 0.00 0.00 0.00 68 1016.7
20200710033307 70 342 3.0 8.0 0.00 0.00 0.00 67 1016.7
20200710032806 70 24 2.0 5.0 0.00 0.00 0.00 67 1016.7
20200710032306 71 50 2.0 5.0 0.00 0.00 0.00 66 1016.5
20200710031806 71 342 2.0 7.0 0.00 0.00 0.00 65 1016.5
20200710031306 71 357 3.0 9.0 0.00 0.00 0.00 64 1016.5
20200710030805 71 346 2.0 9.0 0.00 0.00 0.00 64 1016.4
20200710030305 71 28 3.0 6.0 0.00 0.00 0.00 63 1016.4
20200710025806 71 359 2.0 8.0 0.00 0.00 0.00 63 1016.3
20200710025306 72 359 4.0 8.0 0.00 0.00 0.00 62 1016.3
20200710024806 72 38 4.0 7.0 0.00 0.00 0.00 61 1016.3
20200710024306 73 31 3.0 6.0 0.00 0.00 0.00 59 1016.3
20200710023805 73 335 2.0 5.0 0.00 0.00 0.00 56 1016.1
20200710023305 73 184 2.0 3.0 0.00 0.00 0.00 56 1016.1
20200710022805 73 205 2.0 3.0 0.00 0.00 0.00 56 1016.1
20200710022305 73 185 2.0 3.0 0.00 0.00 0.00 57 1016.1
20200710021806 73 159 3.0 6.0 0.00 0.00 0.00 56 1016.1
20200710021305 73 142 3.0 5.0 0.00 0.00 0.00 56 1015.9
20200710020805 73 130 2.0 6.0 0.00 0.00 0.00 56 1015.9
20200710020305 74 143 4.0 9.0 0.00 0.00 0.00 55 1015.9
20200710015805 74 133 5.0 8.0 0.00 0.00 0.00 54 1015.9
20200710015306 74 196 4.0 9.0 0.00 0.00 0.00 55 1015.9
20200710014805 74 124 1.0 5.0 0.00 0.00 0.00 54 1015.8
20200710014306 75 199 3.0 7.0 0.00 0.00 0.00 52 1015.8
20200710013805 76 165 2.0 7.0 0.00 0.00 0.00 50 1015.9
20200710013306 76 308 1.0 3.0 0.00 0.00 0.00 51 1015.8
20200710012805 75 266 3.0 6.0 0.00 0.00 0.00 53 1015.9
20200710012305 74 214 1.0 3.0 0.00 0.00 0.00 53 1015.8
20200710011806 74 190 5.0 7.0 0.00 0.00 0.00 52 1015.9
20200710011305 74 201 1.0 3.0 0.00 0.00 0.00 53 1015.8
20200710010805 74 207 3.0 5.0 0.00 0.00 0.00 53 1015.9
20200710010305 74 214 2.0 3.0 0.00 0.00 0.00 54 1015.8